owner,sensor,date,latitude,longitude,vertical_datum,sea_water_practical_salinity,qcFlag 
SCCF RECON,ioos:station:SCCF:16:1,2011-10-01T00:00:00Z,26.4345,-81.9647,2.44,34.43,1111122 
SCCF RECON,ioos:station:SCCF:16:1,2011-10-01T01:00:00Z,26.4345,-81.9647,2.441,34.83,1111122 
SCCF RECON,ioos:station:SCCF:16:1,2011-10-01T02:00:00Z,26.4345,-81.9647,2.442,33.82,1111122 
SCCF RECON,ioos:station:SCCF:16:1,2011-10-01T03:00:00Z,26.4345,-81.9647,2.539,33.74,1111122 
SCCF RECON,ioos:station:SCCF:16:1,2011-10-01T04:00:00Z,26.4345,-81.9647,2.741,34.38,1111122 
SCCF RECON,ioos:station:SCCF:16:1,2011-10-01T05:00:00Z,26.4345,-81.9647,2.873,34.92,1111122 
SCCF RECON,ioos:station:SCCF:16:1,2011-10-01T06:00:00Z,26.4345,-81.9647,2.953,35.02,1111122 
SCCF RECON,ioos:station:SCCF:16:1,2011-10-01T07:00:00Z,26.4345,-81.9647,2.959,34.9,1111122 
SCCF RECON,ioos:station:SCCF:16:1,2011-10-01T08:00:00Z,26.4345,-81.9647,2.874,35.08,1111122 
SCCF RECON,ioos:station:SCCF:16:1,2011-10-01T09:00:00Z,26.4345,-81.9647,2.732,35.12,1111122 
SCCF RECON,ioos:station:SCCF:16:1,2011-10-01T10:00:00Z,26.4345,-81.9647,2.536,35.0,1111122 
SCCF RECON,ioos:station:SCCF:16:1,2011-10-01T11:00:00Z,26.4345,-81.9647,2.327,34.41,1111122 
SCCF RECON,ioos:station:SCCF:16:1,2011-10-01T12:00:00Z,26.4345,-81.9647,2.129,33.68,1111122 
SCCF RECON,ioos:station:SCCF:16:1,2011-10-01T13:00:00Z,26.4345,-81.9647,1.958,33.42,1111122 
SCCF RECON,ioos:station:SCCF:16:1,2011-10-01T14:00:00Z,26.4345,-81.9647,1.91,31.15,1111122 
SCCF RECON,ioos:station:SCCF:16:1,2011-10-01T15:00:00Z,26.4345,-81.9647,2.001,30.63,1111122 
SCCF RECON,ioos:station:SCCF:16:1,2011-10-01T16:00:00Z,26.4345,-81.9647,2.217,30.8,1111122 
SCCF RECON,ioos:station:SCCF:16:1,2011-10-01T17:00:00Z,26.4345,-81.9647,2.406,31.97,1111122 
SCCF RECON,ioos:station:SCCF:16:1,2011-10-01T18:00:00Z,26.4345,-81.9647,2.503,33.52,1111122 
SCCF RECON,ioos:station:SCCF:16:1,2011-10-01T19:00:00Z,26.4345,-81.9647,2.561,34.27,1111122 
SCCF RECON,ioos:station:SCCF:16:1,2011-10-01T20:00:00Z,26.4345,-81.9647,2.633,34.74,1111122 
SCCF RECON,ioos:station:SCCF:16:1,2011-10-01T21:00:00Z,26.4345,-81.9647,2.679,34.89,1111122 
SCCF RECON,ioos:station:SCCF:16:1,2011-10-01T22:00:00Z,26.4345,-81.9647,2.676,34.82,1111122 
SCCF RECON,ioos:station:SCCF:16:1,2011-10-01T23:00:00Z,26.4345,-81.9647,2.625,34.87,1111122 
SCCF RECON,ioos:station:SCCF:16:1,2011-10-02T00:00:00Z,26.4345,-81.9647,2.582,34.88,1111122 
SCCF RECON,ioos:station:SCCF:16:1,2011-10-02T01:00:00Z,26.4345,-81.9647,2.528,34.87,1111122 
SCCF RECON,ioos:station:SCCF:16:1,2011-10-02T02:00:00Z,26.4345,-81.9647,2.459,34.19,1111122 
SCCF RECON,ioos:station:SCCF:16:1,2011-10-02T03:00:00Z,26.4345,-81.9647,2.455,32.75,1111122 
SCCF RECON,ioos:station:SCCF:16:1,2011-10-02T04:00:00Z,26.4345,-81.9647,2.566,32.89,1111122 
SCCF RECON,ioos:station:SCCF:16:1,2011-10-02T05:00:00Z,26.4345,-81.9647,2.667,33.21,1111122 
SCCF RECON,ioos:station:SCCF:16:1,2011-10-02T06:00:00Z,26.4345,-81.9647,2.743,33.36,1111122 
SCCF RECON,ioos:station:SCCF:16:1,2011-10-02T07:00:00Z,26.4345,-81.9647,2.804,33.74,1111122 
SCCF RECON,ioos:station:SCCF:16:1,2011-10-02T08:00:00Z,26.4345,-81.9647,2.814,33.95,1111122 
SCCF RECON,ioos:station:SCCF:16:1,2011-10-02T09:00:00Z,26.4345,-81.9647,2.75,33.88,1111122 
SCCF RECON,ioos:station:SCCF:16:1,2011-10-02T10:00:00Z,26.4345,-81.9647,2.643,34.13,1111122 
SCCF RECON,ioos:station:SCCF:16:1,2011-10-02T11:00:00Z,26.4345,-81.9647,2.486,34.38,1111122 
SCCF RECON,ioos:station:SCCF:16:1,2011-10-02T12:00:00Z,26.4345,-81.9647,2.301,33.33,1111122 
SCCF RECON,ioos:station:SCCF:16:1,2011-10-02T13:00:00Z,26.4345,-81.9647,2.142,31.97,1111122 
SCCF RECON,ioos:station:SCCF:16:1,2011-10-02T14:00:00Z,26.4345,-81.9647,2.023,31.5,1111122 
SCCF RECON,ioos:station:SCCF:16:1,2011-10-02T15:00:00Z,26.4345,-81.9647,1.96,29.4,1111122 
SCCF RECON,ioos:station:SCCF:16:1,2011-10-02T16:00:00Z,26.4345,-81.9647,2.049,28.83,1111122 
SCCF RECON,ioos:station:SCCF:16:1,2011-10-02T17:00:00Z,26.4345,-81.9647,2.263,29.22,1111122 
SCCF RECON,ioos:station:SCCF:16:1,2011-10-02T18:00:00Z,26.4345,-81.9647,2.381,30.04,1111122 
SCCF RECON,ioos:station:SCCF:16:1,2011-10-02T19:00:00Z,26.4345,-81.9647,2.44,31.94,1111122 
SCCF RECON,ioos:station:SCCF:16:1,2011-10-02T20:00:00Z,26.4345,-81.9647,2.509,33.47,1111122 
SCCF RECON,ioos:station:SCCF:16:1,2011-10-02T21:00:00Z,26.4345,-81.9647,2.56,34.22,1111122 
SCCF RECON,ioos:station:SCCF:16:1,2011-10-02T22:00:00Z,26.4345,-81.9647,2.636,34.56,1111122 
SCCF RECON,ioos:station:SCCF:16:1,2011-10-02T23:00:00Z,26.4345,-81.9647,2.65,34.74,1111122 
SCCF RECON,ioos:station:SCCF:16:1,2011-10-03T00:00:00Z,26.4345,-81.9647,2.609,34.69,1111122 
SCCF RECON,ioos:station:SCCF:16:1,2011-10-03T01:00:00Z,26.4345,-81.9647,2.573,34.75,1111122 
SCCF RECON,ioos:station:SCCF:16:1,2011-10-03T02:00:00Z,26.4345,-81.9647,2.543,34.76,1111122 
SCCF RECON,ioos:station:SCCF:16:1,2011-10-03T03:00:00Z,26.4345,-81.9647,2.55,33.45,1111122 
SCCF RECON,ioos:station:SCCF:16:1,2011-10-03T04:00:00Z,26.4345,-81.9647,2.559,33.6,1111122 
SCCF RECON,ioos:station:SCCF:16:1,2011-10-03T05:00:00Z,26.4345,-81.9647,2.617,33.33,1111122 
SCCF RECON,ioos:station:SCCF:16:1,2011-10-03T06:00:00Z,26.4345,-81.9647,2.705,33.39,1111122 
SCCF RECON,ioos:station:SCCF:16:1,2011-10-03T07:00:00Z,26.4345,-81.9647,2.774,33.59,1111122 
SCCF RECON,ioos:station:SCCF:16:1,2011-10-03T08:00:00Z,26.4345,-81.9647,2.816,33.77,1111122 
SCCF RECON,ioos:station:SCCF:16:1,2011-10-03T09:00:00Z,26.4345,-81.9647,2.803,34.21,1111122 
SCCF RECON,ioos:station:SCCF:16:1,2011-10-03T10:00:00Z,26.4345,-81.9647,2.764,34.52,1111122 
SCCF RECON,ioos:station:SCCF:16:1,2011-10-03T11:00:00Z,26.4345,-81.9647,2.683,34.49,1111122 
SCCF RECON,ioos:station:SCCF:16:1,2011-10-03T12:00:00Z,26.4345,-81.9647,2.549,34.35,1111122 
SCCF RECON,ioos:station:SCCF:16:1,2011-10-03T13:00:00Z,26.4345,-81.9647,2.4,34.17,1111122 
SCCF RECON,ioos:station:SCCF:16:1,2011-10-03T14:00:00Z,26.4345,-81.9647,2.255,33.42,1111122 
SCCF RECON,ioos:station:SCCF:16:1,2011-10-03T15:00:00Z,26.4345,-81.9647,2.105,31.96,1111122 
SCCF RECON,ioos:station:SCCF:16:1,2011-10-03T16:00:00Z,26.4345,-81.9647,2.038,31.09,1111122 
SCCF RECON,ioos:station:SCCF:16:1,2011-10-03T17:00:00Z,26.4345,-81.9647,2.082,29.57,1111122 
SCCF RECON,ioos:station:SCCF:16:1,2011-10-03T18:00:00Z,26.4345,-81.9647,2.209,29.04,1111122 
SCCF RECON,ioos:station:SCCF:16:1,2011-10-03T19:00:00Z,26.4345,-81.9647,2.319,30.26,1111122 
SCCF RECON,ioos:station:SCCF:16:1,2011-10-03T20:00:00Z,26.4345,-81.9647,2.419,31.9,1111122 
SCCF RECON,ioos:station:SCCF:16:1,2011-10-03T21:00:00Z,26.4345,-81.9647,2.475,33.75,1111122 
SCCF RECON,ioos:station:SCCF:16:1,2011-10-03T22:00:00Z,26.4345,-81.9647,2.528,34.04,1111122 
SCCF RECON,ioos:station:SCCF:16:1,2011-10-03T23:00:00Z,26.4345,-81.9647,2.602,34.43,1111122 
SCCF RECON,ioos:station:SCCF:16:1,2011-10-04T00:00:00Z,26.4345,-81.9647,2.648,34.77,1111122 
SCCF RECON,ioos:station:SCCF:16:1,2011-10-04T01:00:00Z,26.4345,-81.9647,2.643,34.83,1111122 
SCCF RECON,ioos:station:SCCF:16:1,2011-10-04T02:00:00Z,26.4345,-81.9647,2.64,34.89,1111122 
SCCF RECON,ioos:station:SCCF:16:1,2011-10-04T03:00:00Z,26.4345,-81.9647,2.645,34.54,1111122 
SCCF RECON,ioos:station:SCCF:16:1,2011-10-04T04:00:00Z,26.4345,-81.9647,2.657,34.26,1111122 
SCCF RECON,ioos:station:SCCF:16:1,2011-10-04T05:00:00Z,26.4345,-81.9647,2.603,34.2,1111122 
SCCF RECON,ioos:station:SCCF:16:1,2011-10-04T06:00:00Z,26.4345,-81.9647,2.58,34.28,1111122 
SCCF RECON,ioos:station:SCCF:16:1,2011-10-04T07:00:00Z,26.4345,-81.9647,2.629,34.17,1111122 
SCCF RECON,ioos:station:SCCF:16:1,2011-10-04T08:00:00Z,26.4345,-81.9647,2.738,34.22,1111122 
SCCF RECON,ioos:station:SCCF:16:1,2011-10-04T09:00:00Z,26.4345,-81.9647,2.764,34.35,1111122 
SCCF RECON,ioos:station:SCCF:16:1,2011-10-04T10:00:00Z,26.4345,-81.9647,2.782,34.53,1111122 
SCCF RECON,ioos:station:SCCF:16:1,2011-10-04T11:00:00Z,26.4345,-81.9647,2.775,34.66,1111122 
SCCF RECON,ioos:station:SCCF:16:1,2011-10-04T12:00:00Z,26.4345,-81.9647,2.742,34.76,1111122 
SCCF RECON,ioos:station:SCCF:16:1,2011-10-04T13:00:00Z,26.4345,-81.9647,2.593,34.7,1111122 
SCCF RECON,ioos:station:SCCF:16:1,2011-10-04T14:00:00Z,26.4345,-81.9647,2.448,34.55,1111122 
SCCF RECON,ioos:station:SCCF:16:1,2011-10-04T15:00:00Z,26.4345,-81.9647,2.314,34.41,1111122 
SCCF RECON,ioos:station:SCCF:16:1,2011-10-04T16:00:00Z,26.4345,-81.9647,2.171,33.5,1111122 
SCCF RECON,ioos:station:SCCF:16:1,2011-10-04T17:00:00Z,26.4345,-81.9647,2.12,33.2,1111122 
SCCF RECON,ioos:station:SCCF:16:1,2011-10-04T18:00:00Z,26.4345,-81.9647,2.066,31.65,1111122 
SCCF RECON,ioos:station:SCCF:16:1,2011-10-04T19:00:00Z,26.4345,-81.9647,2.151,30.74,1111122 
SCCF RECON,ioos:station:SCCF:16:1,2011-10-04T20:00:00Z,26.4345,-81.9647,2.294,30.77,1111122 
SCCF RECON,ioos:station:SCCF:16:1,2011-10-04T21:00:00Z,26.4345,-81.9647,2.376,32.02,1111122 
SCCF RECON,ioos:station:SCCF:16:1,2011-10-04T22:00:00Z,26.4345,-81.9647,2.467,33.61,1111122 
SCCF RECON,ioos:station:SCCF:16:1,2011-10-04T23:00:00Z,26.4345,-81.9647,2.571,33.9,1111122 
SCCF RECON,ioos:station:SCCF:16:1,2011-10-05T00:00:00Z,26.4345,-81.9647,2.655,33.76,1111122 
SCCF RECON,ioos:station:SCCF:16:1,2011-10-05T01:00:00Z,26.4345,-81.9647,2.727,33.37,1111122 
SCCF RECON,ioos:station:SCCF:16:1,2011-10-05T02:00:00Z,26.4345,-81.9647,2.731,33.7,1111122 
SCCF RECON,ioos:station:SCCF:16:1,2011-10-05T03:00:00Z,26.4345,-81.9647,2.691,33.91,1111122 
SCCF RECON,ioos:station:SCCF:16:1,2011-10-05T04:00:00Z,26.4345,-81.9647,2.69,34.3,1111122 
SCCF RECON,ioos:station:SCCF:16:1,2011-10-05T05:00:00Z,26.4345,-81.9647,2.604,34.3,1111122 
SCCF RECON,ioos:station:SCCF:16:1,2011-10-05T06:00:00Z,26.4345,-81.9647,2.586,34.39,1111122 
SCCF RECON,ioos:station:SCCF:16:1,2011-10-05T07:00:00Z,26.4345,-81.9647,2.58,34.42,1111122 
SCCF RECON,ioos:station:SCCF:16:1,2011-10-05T08:00:00Z,26.4345,-81.9647,2.626,34.4,1111122 
SCCF RECON,ioos:station:SCCF:16:1,2011-10-05T09:00:00Z,26.4345,-81.9647,2.669,34.43,1111122 
SCCF RECON,ioos:station:SCCF:16:1,2011-10-05T10:00:00Z,26.4345,-81.9647,2.746,34.48,1111122 
SCCF RECON,ioos:station:SCCF:16:1,2011-10-05T11:00:00Z,26.4345,-81.9647,2.822,34.42,1111122 
SCCF RECON,ioos:station:SCCF:16:1,2011-10-05T12:00:00Z,26.4345,-81.9647,2.822,34.59,1111122 
SCCF RECON,ioos:station:SCCF:16:1,2011-10-05T13:00:00Z,26.4345,-81.9647,2.773,34.64,1111122 
SCCF RECON,ioos:station:SCCF:16:1,2011-10-05T14:00:00Z,26.4345,-81.9647,2.658,34.59,1111122 
SCCF RECON,ioos:station:SCCF:16:1,2011-10-05T15:00:00Z,26.4345,-81.9647,2.495,34.46,1111122 
SCCF RECON,ioos:station:SCCF:16:1,2011-10-05T16:00:00Z,26.4345,-81.9647,2.366,34.45,1111122 
SCCF RECON,ioos:station:SCCF:16:1,2011-10-05T17:00:00Z,26.4345,-81.9647,2.258,34.08,1111122 
SCCF RECON,ioos:station:SCCF:16:1,2011-10-05T18:00:00Z,26.4345,-81.9647,2.178,33.42,1111122 
SCCF RECON,ioos:station:SCCF:16:1,2011-10-05T19:00:00Z,26.4345,-81.9647,2.115,32.77,1111122 
SCCF RECON,ioos:station:SCCF:16:1,2011-10-05T20:00:00Z,26.4345,-81.9647,2.197,31.7,1111122 
SCCF RECON,ioos:station:SCCF:16:1,2011-10-05T21:00:00Z,26.4345,-81.9647,2.3,31.88,1111122 
SCCF RECON,ioos:station:SCCF:16:1,2011-10-05T22:00:00Z,26.4345,-81.9647,2.397,32.16,1111122 
SCCF RECON,ioos:station:SCCF:16:1,2011-10-05T23:00:00Z,26.4345,-81.9647,2.462,32.23,1111122 
SCCF RECON,ioos:station:SCCF:16:1,2011-10-06T00:00:00Z,26.4345,-81.9647,2.531,32.81,1111122 
SCCF RECON,ioos:station:SCCF:16:1,2011-10-06T01:00:00Z,26.4345,-81.9647,2.621,33.4,1111122 
SCCF RECON,ioos:station:SCCF:16:1,2011-10-06T02:00:00Z,26.4345,-81.9647,2.656,33.7,1111122 
SCCF RECON,ioos:station:SCCF:16:1,2011-10-06T03:00:00Z,26.4345,-81.9647,2.642,33.94,1111122 
SCCF RECON,ioos:station:SCCF:16:1,2011-10-06T04:00:00Z,26.4345,-81.9647,2.605,34.07,1111122 
SCCF RECON,ioos:station:SCCF:16:1,2011-10-06T05:00:00Z,26.4345,-81.9647,2.514,34.18,1111122 
SCCF RECON,ioos:station:SCCF:16:1,2011-10-06T06:00:00Z,26.4345,-81.9647,2.465,34.1,1111122 
SCCF RECON,ioos:station:SCCF:16:1,2011-10-06T07:00:00Z,26.4345,-81.9647,2.448,34.06,1111122 
SCCF RECON,ioos:station:SCCF:16:1,2011-10-06T08:00:00Z,26.4345,-81.9647,2.478,34.05,1111122 
SCCF RECON,ioos:station:SCCF:16:1,2011-10-06T09:00:00Z,26.4345,-81.9647,2.545,34.11,1111122 
SCCF RECON,ioos:station:SCCF:16:1,2011-10-06T10:00:00Z,26.4345,-81.9647,2.67,34.19,1111122 
SCCF RECON,ioos:station:SCCF:16:1,2011-10-06T11:00:00Z,26.4345,-81.9647,2.785,34.49,1111122 
SCCF RECON,ioos:station:SCCF:16:1,2011-10-06T12:00:00Z,26.4345,-81.9647,2.855,34.59,1111122 
SCCF RECON,ioos:station:SCCF:16:1,2011-10-06T13:00:00Z,26.4345,-81.9647,2.868,34.63,1111122 
SCCF RECON,ioos:station:SCCF:16:1,2011-10-06T14:00:00Z,26.4345,-81.9647,2.809,34.69,1111122 
SCCF RECON,ioos:station:SCCF:16:1,2011-10-06T15:00:00Z,26.4345,-81.9647,2.737,34.67,1111122 
SCCF RECON,ioos:station:SCCF:16:1,2011-10-06T16:00:00Z,26.4345,-81.9647,2.62,34.67,1111122 
SCCF RECON,ioos:station:SCCF:16:1,2011-10-06T17:00:00Z,26.4345,-81.9647,2.497,34.58,1111122 
SCCF RECON,ioos:station:SCCF:16:1,2011-10-06T18:00:00Z,26.4345,-81.9647,2.366,34.47,1111122 
SCCF RECON,ioos:station:SCCF:16:1,2011-10-06T19:00:00Z,26.4345,-81.9647,2.25,33.85,1111122 
SCCF RECON,ioos:station:SCCF:16:1,2011-10-06T20:00:00Z,26.4345,-81.9647,2.207,33.53,1111122 
SCCF RECON,ioos:station:SCCF:16:1,2011-10-06T21:00:00Z,26.4345,-81.9647,2.265,32.85,1111122 
SCCF RECON,ioos:station:SCCF:16:1,2011-10-06T22:00:00Z,26.4345,-81.9647,2.408,32.5,1111122 
SCCF RECON,ioos:station:SCCF:16:1,2011-10-06T23:00:00Z,26.4345,-81.9647,2.505,32.59,1111122 
SCCF RECON,ioos:station:SCCF:16:1,2011-10-07T00:00:00Z,26.4345,-81.9647,2.566,33.24,1111122 
SCCF RECON,ioos:station:SCCF:16:1,2011-10-07T01:00:00Z,26.4345,-81.9647,2.635,33.73,1111122 
SCCF RECON,ioos:station:SCCF:16:1,2011-10-07T02:00:00Z,26.4345,-81.9647,2.717,33.89,1111122 
SCCF RECON,ioos:station:SCCF:16:1,2011-10-07T03:00:00Z,26.4345,-81.9647,2.72,34.18,1111122 
SCCF RECON,ioos:station:SCCF:16:1,2011-10-07T04:00:00Z,26.4345,-81.9647,2.656,34.35,1111122 
SCCF RECON,ioos:station:SCCF:16:1,2011-10-07T05:00:00Z,26.4345,-81.9647,2.595,34.56,1111122 
SCCF RECON,ioos:station:SCCF:16:1,2011-10-07T06:00:00Z,26.4345,-81.9647,2.467,34.58,1111122 
SCCF RECON,ioos:station:SCCF:16:1,2011-10-07T07:00:00Z,26.4345,-81.9647,2.374,34.5,1111122 
SCCF RECON,ioos:station:SCCF:16:1,2011-10-07T08:00:00Z,26.4345,-81.9647,2.366,33.95,1111122 
SCCF RECON,ioos:station:SCCF:16:1,2011-10-07T09:00:00Z,26.4345,-81.9647,2.454,33.5,1111122 
SCCF RECON,ioos:station:SCCF:16:1,2011-10-07T10:00:00Z,26.4345,-81.9647,2.537,33.53,1111122 
SCCF RECON,ioos:station:SCCF:16:1,2011-10-07T11:00:00Z,26.4345,-81.9647,2.665,33.71,1111122 
SCCF RECON,ioos:station:SCCF:16:1,2011-10-07T12:00:00Z,26.4345,-81.9647,2.753,33.96,1111122 
SCCF RECON,ioos:station:SCCF:16:1,2011-10-07T13:00:00Z,26.4345,-81.9647,2.842,34.61,1111122 
SCCF RECON,ioos:station:SCCF:16:1,2011-10-07T14:00:00Z,26.4345,-81.9647,2.864,34.62,1111122 
SCCF RECON,ioos:station:SCCF:16:1,2011-10-07T15:00:00Z,26.4345,-81.9647,2.816,34.68,1111122 
SCCF RECON,ioos:station:SCCF:16:1,2011-10-07T16:00:00Z,26.4345,-81.9647,2.727,34.71,1111122 
SCCF RECON,ioos:station:SCCF:16:1,2011-10-07T17:00:00Z,26.4345,-81.9647,2.594,34.65,1111122 
SCCF RECON,ioos:station:SCCF:16:1,2011-10-07T18:00:00Z,26.4345,-81.9647,2.465,34.58,1111122 
SCCF RECON,ioos:station:SCCF:16:1,2011-10-07T19:00:00Z,26.4345,-81.9647,2.357,34.56,1111122 
SCCF RECON,ioos:station:SCCF:16:1,2011-10-07T20:00:00Z,26.4345,-81.9647,2.267,34.19,1111122 
SCCF RECON,ioos:station:SCCF:16:1,2011-10-07T21:00:00Z,26.4345,-81.9647,2.296,33.81,1111122 
SCCF RECON,ioos:station:SCCF:16:1,2011-10-07T22:00:00Z,26.4345,-81.9647,2.456,33.67,1111122 
SCCF RECON,ioos:station:SCCF:16:1,2011-10-07T23:00:00Z,26.4345,-81.9647,2.47,33.88,1111122 
SCCF RECON,ioos:station:SCCF:16:1,2011-10-08T00:00:00Z,26.4345,-81.9647,2.545,34.11,1111122 
SCCF RECON,ioos:station:SCCF:16:1,2011-10-08T01:00:00Z,26.4345,-81.9647,2.602,34.64,1111122 
SCCF RECON,ioos:station:SCCF:16:1,2011-10-08T02:00:00Z,26.4345,-81.9647,2.755,34.58,1111122 
SCCF RECON,ioos:station:SCCF:16:1,2011-10-08T03:00:00Z,26.4345,-81.9647,2.695,34.64,1111122 
SCCF RECON,ioos:station:SCCF:16:1,2011-10-08T04:00:00Z,26.4345,-81.9647,2.71,34.78,1111122 
SCCF RECON,ioos:station:SCCF:16:1,2011-10-08T05:00:00Z,26.4345,-81.9647,2.652,34.77,1111122 
SCCF RECON,ioos:station:SCCF:16:1,2011-10-08T06:00:00Z,26.4345,-81.9647,2.477,34.76,1111122 
SCCF RECON,ioos:station:SCCF:16:1,2011-10-08T07:00:00Z,26.4345,-81.9647,2.362,34.75,1111122 
SCCF RECON,ioos:station:SCCF:16:1,2011-10-08T08:00:00Z,26.4345,-81.9647,2.314,34.59,1111122 
SCCF RECON,ioos:station:SCCF:16:1,2011-10-08T09:00:00Z,26.4345,-81.9647,2.261,34.61,1111122 
SCCF RECON,ioos:station:SCCF:16:1,2011-10-08T10:00:00Z,26.4345,-81.9647,2.43,34.48,1111122 
SCCF RECON,ioos:station:SCCF:16:1,2011-10-08T11:00:00Z,26.4345,-81.9647,2.562,34.61,1111122 
SCCF RECON,ioos:station:SCCF:16:1,2011-10-08T12:00:00Z,26.4345,-81.9647,2.628,34.6,1111122 
SCCF RECON,ioos:station:SCCF:16:1,2011-10-08T13:00:00Z,26.4345,-81.9647,2.712,34.75,1111122 
SCCF RECON,ioos:station:SCCF:16:1,2011-10-08T14:00:00Z,26.4345,-81.9647,2.763,34.77,1111122 
SCCF RECON,ioos:station:SCCF:16:1,2011-10-08T15:00:00Z,26.4345,-81.9647,2.79,34.91,1111122 
SCCF RECON,ioos:station:SCCF:16:1,2011-10-08T16:00:00Z,26.4345,-81.9647,2.84,34.96,1111122 
SCCF RECON,ioos:station:SCCF:16:1,2011-10-08T17:00:00Z,26.4345,-81.9647,2.721,34.91,1111122 
SCCF RECON,ioos:station:SCCF:16:1,2011-10-08T18:00:00Z,26.4345,-81.9647,2.538,34.86,1111122 
SCCF RECON,ioos:station:SCCF:16:1,2011-10-08T19:00:00Z,26.4345,-81.9647,2.458,34.75,1111122 
SCCF RECON,ioos:station:SCCF:16:1,2011-10-08T20:00:00Z,26.4345,-81.9647,2.336,34.67,1111122 
SCCF RECON,ioos:station:SCCF:16:1,2011-10-08T21:00:00Z,26.4345,-81.9647,2.241,34.61,1111122 
SCCF RECON,ioos:station:SCCF:16:1,2011-10-08T22:00:00Z,26.4345,-81.9647,2.223,34.54,1111122 
SCCF RECON,ioos:station:SCCF:16:1,2011-10-08T23:00:00Z,26.4345,-81.9647,2.35,33.93,1111122 
SCCF RECON,ioos:station:SCCF:16:1,2011-10-09T00:00:00Z,26.4345,-81.9647,2.487,33.78,1111122 
SCCF RECON,ioos:station:SCCF:16:1,2011-10-09T01:00:00Z,26.4345,-81.9647,2.658,34.21,1111122 
SCCF RECON,ioos:station:SCCF:16:1,2011-10-09T02:00:00Z,26.4345,-81.9647,2.675,34.21,1111122 
SCCF RECON,ioos:station:SCCF:16:1,2011-10-09T03:00:00Z,26.4345,-81.9647,2.743,34.3,1111122 
SCCF RECON,ioos:station:SCCF:16:1,2011-10-09T04:00:00Z,26.4345,-81.9647,2.737,34.34,1111122 
SCCF RECON,ioos:station:SCCF:16:1,2011-10-09T05:00:00Z,26.4345,-81.9647,2.633,34.3,1111122 
SCCF RECON,ioos:station:SCCF:16:1,2011-10-09T06:00:00Z,26.4345,-81.9647,2.587,34.27,1111122 
SCCF RECON,ioos:station:SCCF:16:1,2011-10-09T07:00:00Z,26.4345,-81.9647,2.536,34.26,1111122 
SCCF RECON,ioos:station:SCCF:16:1,2011-10-09T08:00:00Z,26.4345,-81.9647,2.379,34.22,1111122 
SCCF RECON,ioos:station:SCCF:16:1,2011-10-09T09:00:00Z,26.4345,-81.9647,2.235,34.22,1111122 
SCCF RECON,ioos:station:SCCF:16:1,2011-10-09T10:00:00Z,26.4345,-81.9647,2.264,33.83,1111122 
SCCF RECON,ioos:station:SCCF:16:1,2011-10-09T11:00:00Z,26.4345,-81.9647,2.321,33.19,1111122 
SCCF RECON,ioos:station:SCCF:16:1,2011-10-09T12:00:00Z,26.4345,-81.9647,2.552,33.91,1111122 
SCCF RECON,ioos:station:SCCF:16:1,2011-10-09T13:00:00Z,26.4345,-81.9647,2.695,34.05,1111122 
SCCF RECON,ioos:station:SCCF:16:1,2011-10-09T14:00:00Z,26.4345,-81.9647,2.804,34.29,1111122 
SCCF RECON,ioos:station:SCCF:16:1,2011-10-09T15:00:00Z,26.4345,-81.9647,2.935,34.42,1111122 
SCCF RECON,ioos:station:SCCF:16:1,2011-10-09T16:00:00Z,26.4345,-81.9647,2.891,34.68,1111122 
SCCF RECON,ioos:station:SCCF:16:1,2011-10-09T17:00:00Z,26.4345,-81.9647,2.781,34.74,1111122 
SCCF RECON,ioos:station:SCCF:16:1,2011-10-09T18:00:00Z,26.4345,-81.9647,2.68,34.64,1111122 
SCCF RECON,ioos:station:SCCF:16:1,2011-10-09T19:00:00Z,26.4345,-81.9647,2.602,34.48,1111122 
SCCF RECON,ioos:station:SCCF:16:1,2011-10-09T20:00:00Z,26.4345,-81.9647,2.517,34.38,1111122 
SCCF RECON,ioos:station:SCCF:16:1,2011-10-09T21:00:00Z,26.4345,-81.9647,2.453,34.28,1111122 
SCCF RECON,ioos:station:SCCF:16:1,2011-10-09T22:00:00Z,26.4345,-81.9647,2.366,34.18,1111122 
SCCF RECON,ioos:station:SCCF:16:1,2011-10-09T23:00:00Z,26.4345,-81.9647,2.428,33.81,1111122 
SCCF RECON,ioos:station:SCCF:16:1,2011-10-10T00:00:00Z,26.4345,-81.9647,2.565,33.78,1111122 
SCCF RECON,ioos:station:SCCF:16:1,2011-10-10T01:00:00Z,26.4345,-81.9647,2.654,33.87,1111122 
SCCF RECON,ioos:station:SCCF:16:1,2011-10-10T02:00:00Z,26.4345,-81.9647,2.77,33.84,1111122 
SCCF RECON,ioos:station:SCCF:16:1,2011-10-10T03:00:00Z,26.4345,-81.9647,2.841,34.2,1111122 
SCCF RECON,ioos:station:SCCF:16:1,2011-10-10T04:00:00Z,26.4345,-81.9647,2.888,34.44,1111122 
SCCF RECON,ioos:station:SCCF:16:1,2011-10-10T05:00:00Z,26.4345,-81.9647,2.85,34.55,1111122 
SCCF RECON,ioos:station:SCCF:16:1,2011-10-10T06:00:00Z,26.4345,-81.9647,2.774,34.61,1111122 
SCCF RECON,ioos:station:SCCF:16:1,2011-10-10T07:00:00Z,26.4345,-81.9647,2.625,34.58,1111122 
SCCF RECON,ioos:station:SCCF:16:1,2011-10-10T08:00:00Z,26.4345,-81.9647,2.454,34.45,1111122 
SCCF RECON,ioos:station:SCCF:16:1,2011-10-10T09:00:00Z,26.4345,-81.9647,2.322,34.2,1111122 
SCCF RECON,ioos:station:SCCF:16:1,2011-10-10T10:00:00Z,26.4345,-81.9647,2.271,33.91,1111122 
SCCF RECON,ioos:station:SCCF:16:1,2011-10-10T11:00:00Z,26.4345,-81.9647,2.313,33.49,1111122 
SCCF RECON,ioos:station:SCCF:16:1,2011-10-10T12:00:00Z,26.4345,-81.9647,2.501,33.34,1111122 
SCCF RECON,ioos:station:SCCF:16:1,2011-10-10T13:00:00Z,26.4345,-81.9647,2.714,33.77,1111122 
SCCF RECON,ioos:station:SCCF:16:1,2011-10-10T14:00:00Z,26.4345,-81.9647,2.816,34.14,1111122 
SCCF RECON,ioos:station:SCCF:16:1,2011-10-10T15:00:00Z,26.4345,-81.9647,2.89,34.18,1111122 
SCCF RECON,ioos:station:SCCF:16:1,2011-10-10T16:00:00Z,26.4345,-81.9647,2.939,34.51,1111122 
SCCF RECON,ioos:station:SCCF:16:1,2011-10-10T17:00:00Z,26.4345,-81.9647,2.933,34.58,1111122 
SCCF RECON,ioos:station:SCCF:16:1,2011-10-10T18:00:00Z,26.4345,-81.9647,2.876,34.58,1111122 
SCCF RECON,ioos:station:SCCF:16:1,2011-10-10T19:00:00Z,26.4345,-81.9647,2.776,34.57,1111122 
SCCF RECON,ioos:station:SCCF:16:1,2011-10-10T20:00:00Z,26.4345,-81.9647,2.653,34.57,1111122 
SCCF RECON,ioos:station:SCCF:16:1,2011-10-10T21:00:00Z,26.4345,-81.9647,2.522,34.18,1111122 
SCCF RECON,ioos:station:SCCF:16:1,2011-10-10T22:00:00Z,26.4345,-81.9647,2.437,34.31,1111122 
SCCF RECON,ioos:station:SCCF:16:1,2011-10-10T23:00:00Z,26.4345,-81.9647,2.457,34.06,1111122 
SCCF RECON,ioos:station:SCCF:16:1,2011-10-11T00:00:00Z,26.4345,-81.9647,2.568,33.89,1111122 
SCCF RECON,ioos:station:SCCF:16:1,2011-10-11T01:00:00Z,26.4345,-81.9647,2.762,34.2,1111122 
SCCF RECON,ioos:station:SCCF:16:1,2011-10-11T02:00:00Z,26.4345,-81.9647,2.896,34.61,1111122 
SCCF RECON,ioos:station:SCCF:16:1,2011-10-11T03:00:00Z,26.4345,-81.9647,2.944,34.42,1111122 
SCCF RECON,ioos:station:SCCF:16:1,2011-10-11T04:00:00Z,26.4345,-81.9647,2.996,34.42,1111122 
SCCF RECON,ioos:station:SCCF:16:1,2011-10-11T05:00:00Z,26.4345,-81.9647,2.934,34.36,1111122 
SCCF RECON,ioos:station:SCCF:16:1,2011-10-11T06:00:00Z,26.4345,-81.9647,2.843,34.47,1111122 
SCCF RECON,ioos:station:SCCF:16:1,2011-10-11T07:00:00Z,26.4345,-81.9647,2.726,34.44,1111122 
SCCF RECON,ioos:station:SCCF:16:1,2011-10-11T08:00:00Z,26.4345,-81.9647,2.563,34.44,1111122 
SCCF RECON,ioos:station:SCCF:16:1,2011-10-11T09:00:00Z,26.4345,-81.9647,2.42,34.29,1111122 
SCCF RECON,ioos:station:SCCF:16:1,2011-10-11T10:00:00Z,26.4345,-81.9647,2.323,33.98,1111122 
SCCF RECON,ioos:station:SCCF:16:1,2011-10-11T11:00:00Z,26.4345,-81.9647,2.277,33.62,1111122 
SCCF RECON,ioos:station:SCCF:16:1,2011-10-11T12:00:00Z,26.4345,-81.9647,2.38,33.54,1111122 
SCCF RECON,ioos:station:SCCF:16:1,2011-10-11T13:00:00Z,26.4345,-81.9647,2.602,33.5,1111122 
SCCF RECON,ioos:station:SCCF:16:1,2011-10-11T14:00:00Z,26.4345,-81.9647,2.788,34.39,1111122 
SCCF RECON,ioos:station:SCCF:16:1,2011-10-11T15:00:00Z,26.4345,-81.9647,2.932,34.49,1111122 
SCCF RECON,ioos:station:SCCF:16:1,2011-10-11T16:00:00Z,26.4345,-81.9647,2.989,34.46,1111122 